TimeCST,TemperatureF,Dew PointF,Humidity,Sea Level PressureIn,VisibilityMPH,Wind Direction,Wind SpeedMPH,Gust SpeedMPH,PrecipitationIn,Events,Conditions,WindDirDegrees,DateUTC
12:13 AM,15.8,10.4,79,30.06,10.0,SSE,8.1,-,N/A,,Clear,160,2013-01-05 06:13:00
12:33 AM,17.6,10.4,73,30.06,10.0,SSE,6.9,-,N/A,,Clear,160,2013-01-05 06:33:00
1:13 AM,17.6,10.4,73,30.06,10.0,South,10.4,-,N/A,,Clear,170,2013-01-05 07:13:00
1:33 AM,17.6,10.4,73,30.06,10.0,South,6.9,-,N/A,,Clear,170,2013-01-05 07:33:00
1:53 AM,17.6,8.6,68,30.05,10.0,SSE,8.1,-,N/A,,Clear,160,2013-01-05 07:53:00
2:13 AM,15.8,8.6,73,30.04,10.0,SSE,5.8,-,N/A,,Clear,150,2013-01-05 08:13:00
2:33 AM,17.6,8.6,68,30.04,10.0,SSE,5.8,-,N/A,,Clear,160,2013-01-05 08:33:00
2:53 AM,15.8,8.6,73,30.03,10.0,SE,5.8,-,N/A,,Clear,140,2013-01-05 08:53:00
3:13 AM,15.8,8.6,73,30.02,10.0,SE,4.6,-,N/A,,Clear,130,2013-01-05 09:13:00
3:33 AM,15.8,8.6,73,30.02,10.0,SSE,6.9,-,N/A,,Clear,150,2013-01-05 09:33:00
3:53 AM,15.8,6.8,68,30.01,10.0,SSE,11.5,-,N/A,,Clear,160,2013-01-05 09:53:00
4:13 AM,15.8,6.8,68,30.00,10.0,SSE,9.2,-,N/A,,Clear,150,2013-01-05 10:13:00
4:34 AM,17.6,8.6,68,29.99,10.0,SSE,12.7,-,N/A,,Clear,150,2013-01-05 10:34:00
4:53 AM,17.6,8.6,68,29.98,10.0,SE,8.1,-,N/A,,Clear,140,2013-01-05 10:53:00
5:13 AM,17.6,8.6,68,29.97,10.0,ESE,3.5,-,N/A,,Clear,120,2013-01-05 11:13:00
5:33 AM,17.6,10.4,73,29.98,10.0,South,5.8,-,N/A,,Clear,170,2013-01-05 11:33:00
5:53 AM,17.6,8.6,68,29.98,10.0,SSE,11.5,-,N/A,,Clear,160,2013-01-05 11:53:00
6:14 AM,17.6,10.4,73,29.98,10.0,SE,6.9,-,N/A,,Clear,140,2013-01-05 12:14:00
6:33 AM,15.8,8.6,73,29.96,7.0,SSE,10.4,-,N/A,,Clear,160,2013-01-05 12:33:00
6:53 AM,17.6,8.6,68,29.97,10.0,SSE,4.6,-,N/A,,Clear,150,2013-01-05 12:53:00
7:13 AM,17.6,8.6,68,29.97,10.0,SSE,3.5,-,N/A,,Clear,150,2013-01-05 13:13:00
7:33 AM,15.8,6.8,68,29.96,7.0,SSE,9.2,-,N/A,,Clear,150,2013-01-05 13:33:00
7:53 AM,15.8,8.6,73,29.95,7.0,SSE,11.5,-,N/A,,Clear,150,2013-01-05 13:53:00
8:14 AM,15.8,8.6,73,29.94,7.0,SSE,12.7,-,N/A,,Clear,150,2013-01-05 14:14:00
8:33 AM,17.6,10.4,73,29.93,10.0,SSE,15.0,-,N/A,,Clear,160,2013-01-05 14:33:00
8:54 AM,19.4,10.4,68,29.94,10.0,South,9.2,-,N/A,,Clear,170,2013-01-05 14:54:00
9:13 AM,19.4,10.4,68,29.92,10.0,South,10.4,-,N/A,,Clear,170,2013-01-05 15:13:00
9:33 AM,19.4,10.4,68,29.91,10.0,South,10.4,-,N/A,,Clear,180,2013-01-05 15:33:00
9:53 AM,19.4,10.4,68,29.92,10.0,South,6.9,-,N/A,,Clear,190,2013-01-05 15:53:00
10:14 AM,19.4,10.4,68,29.92,10.0,SSE,8.1,-,N/A,,Clear,160,2013-01-05 16:14:00
10:53 AM,21.2,12.2,68,29.91,10.0,South,10.4,-,N/A,,Clear,180,2013-01-05 16:53:00
11:13 AM,24.8,14.0,64,29.90,10.0,SSW,17.3,-,N/A,,Clear,200,2013-01-05 17:13:00
11:34 AM,24.8,14.0,64,29.89,10.0,SSW,13.8,-,N/A,,Clear,210,2013-01-05 17:34:00
11:54 AM,26.6,15.8,64,29.88,10.0,SSW,11.5,-,N/A,,Clear,210,2013-01-05 17:54:00
12:13 PM,26.6,15.8,64,29.88,10.0,SW,12.7,-,N/A,,Clear,220,2013-01-05 18:13:00
12:33 PM,26.6,15.8,64,29.87,10.0,SW,13.8,-,N/A,,Clear,220,2013-01-05 18:33:00
12:53 PM,26.6,15.8,64,29.86,10.0,SW,12.7,-,N/A,,Clear,230,2013-01-05 18:53:00
1:13 PM,24.8,15.8,69,29.85,10.0,SW,6.9,-,N/A,,Clear,230,2013-01-05 19:13:00
1:34 PM,24.8,14.0,64,29.84,10.0,SW,9.2,-,N/A,,Clear,230,2013-01-05 19:34:00
1:53 PM,24.8,14.0,64,29.84,10.0,SW,11.5,-,N/A,,Clear,230,2013-01-05 19:53:00
2:13 PM,24.8,14.0,64,29.84,10.0,SW,11.5,-,N/A,,Clear,230,2013-01-05 20:13:00
2:33 PM,24.8,14.0,64,29.84,10.0,SW,8.1,-,N/A,,Clear,230,2013-01-05 20:33:00
2:53 PM,24.8,14.0,64,29.85,10.0,WSW,10.4,-,N/A,,Clear,250,2013-01-05 20:53:00
3:13 PM,24.8,14.0,64,29.84,10.0,SW,8.1,-,N/A,,Clear,230,2013-01-05 21:13:00
3:33 PM,24.8,14.0,64,29.84,10.0,WSW,10.4,-,N/A,,Clear,240,2013-01-05 21:33:00
3:53 PM,24.8,14.0,64,29.84,10.0,SW,8.1,-,N/A,,Clear,230,2013-01-05 21:53:00
4:13 PM,23.0,12.2,63,29.85,10.0,WSW,8.1,-,N/A,,Clear,240,2013-01-05 22:13:00
4:33 PM,21.2,12.2,68,29.85,10.0,WSW,5.8,-,N/A,,Clear,240,2013-01-05 22:33:00
4:53 PM,19.4,12.2,74,29.86,10.0,WSW,5.8,-,N/A,,Clear,240,2013-01-05 22:53:00
5:13 PM,21.2,12.2,68,29.87,10.0,WSW,6.9,-,N/A,,Clear,240,2013-01-05 23:13:00
5:33 PM,19.4,10.4,68,29.87,10.0,WSW,6.9,-,N/A,,Clear,240,2013-01-05 23:33:00
5:53 PM,19.4,10.4,68,29.87,10.0,WSW,9.2,-,N/A,,Clear,240,2013-01-05 23:53:00
6:14 PM,19.4,12.2,74,29.89,10.0,WSW,6.9,-,N/A,,Clear,250,2013-01-06 00:14:00
6:33 PM,19.4,10.4,68,29.89,10.0,West,9.2,-,N/A,,Clear,280,2013-01-06 00:33:00
6:53 PM,21.2,10.4,63,29.90,10.0,West,9.2,-,N/A,,Clear,280,2013-01-06 00:53:00
7:13 PM,21.2,10.4,63,29.91,10.0,West,10.4,-,N/A,,Scattered Clouds,280,2013-01-06 01:13:00
7:53 PM,19.4,10.4,68,29.92,10.0,West,17.3,-,N/A,,Clear,280,2013-01-06 01:53:00
8:13 PM,17.6,10.4,73,29.92,10.0,WNW,13.8,-,N/A,,Clear,290,2013-01-06 02:13:00
8:34 PM,17.6,10.4,73,29.93,10.0,West,13.8,-,N/A,,Clear,280,2013-01-06 02:34:00
8:53 PM,17.6,8.6,68,29.94,10.0,West,13.8,-,N/A,,Clear,280,2013-01-06 02:53:00
9:13 PM,15.8,8.6,73,29.95,10.0,West,15.0,-,N/A,,Clear,280,2013-01-06 03:13:00
9:33 PM,15.8,8.6,73,29.95,10.0,WNW,8.1,-,N/A,,Clear,290,2013-01-06 03:33:00
9:53 PM,14.0,6.8,73,29.94,10.0,West,9.2,-,N/A,,Clear,270,2013-01-06 03:53:00
10:34 PM,14.0,6.8,73,29.98,10.0,WNW,12.7,-,N/A,,Clear,290,2013-01-06 04:34:00
10:54 PM,12.2,6.8,79,29.99,7.0,WNW,12.7,-,N/A,,Clear,290,2013-01-06 04:54:00
11:13 PM,12.2,5.0,73,29.99,7.0,WNW,9.2,-,N/A,,Clear,290,2013-01-06 05:13:00
11:33 PM,12.2,5.0,73,29.99,7.0,WNW,8.1,-,N/A,,Clear,290,2013-01-06 05:33:00
11:53 PM,12.2,5.0,73,29.99,7.0,West,9.2,-,N/A,,Clear,280,2013-01-06 05:53:00